Flag for Monaco Weather past 2 weeks in Monaco, Monaco

Now
64 °F

Passing clouds.


Feels Like: 64 °F
Forecast: 50 / 68 °F
Wind: 6 mph from South

Location: Nice Airport

Current Time: Apr 21, 2015 at 3:31:45 PM

Latest Report: Apr 21, 2015 at 3:00 PM


Visibility: N/A

Pressure: 30.24 "Hg

Humidity: 68%

Dew point: 54 °F

Location of MonacoLocation

Historic Weather in Monaco — Graph

°F

Monaco temperature yesterday

Maximum temperature yesterday: 63 °F (at 10:30 AM)
Minimum temperature yesterday: 52 °F (at 7:00 AM)
Average temperature yesterday: 59 °F

Past Weeks' High & Low Weather Summary

 TemperatureHumidityPressure
High70 °F (Apr 13, 10:30 AM)94% (Apr 15, 12:00 AM)30.42 "Hg (Apr 15, 12:00 AM)
Low46 °F (Apr 7, 4:30 AM)31% (Apr 7, 11:00 AM)29.89 "Hg (Apr 18, 4:30 AM)
Average58 °F70%30.21 "Hg
* Reported Apr 6 2:00 PM — Apr 21 2:30 PM, Monaco, Weather by CustomWeather, © 2015

Note: Actual official high and low records may vary slightly from our data, if they occured in-between our weather recording intervals... More about our weather records

Advertising

Monaco weather history for previous 24 hours

 ConditionsComfort  
Time TempWeatherWind HumidityBarometerVisibility
2:30 PM
Tue, Apr 21
64 °FPassing clouds.5 mph68%30.24 "HgN/A
2:00 PM63 °FPassing clouds.5 mph73%30.24 "HgN/A
1:30 PM63 °FPassing clouds.5 mph77%30.24 "HgN/A
1:00 PM63 °FSunny.5 mph77%30.27 "Hg10 mi
12:30 PM63 °FSunny.6 mph77%30.27 "Hg10 mi
12:00 PM63 °FSunny.6 mph73%30.27 "Hg10 mi
11:30 AM63 °FSunny.8 mph68%30.27 "Hg10 mi
11:00 AM63 °FSunny.7 mph73%30.24 "Hg10 mi
10:30 AM63 °FSunny.5 mph64%30.24 "Hg10 mi
10:00 AM63 °FSunny.3 mph59%30.24 "Hg10 mi
9:30 AM63 °FSunny.2 mph56%30.21 "Hg10 mi
9:00 AM63 °FSunny.3 mph56%30.21 "Hg10 mi
8:30 AM61 °FSunny.8 mph55%30.21 "Hg10 mi
8:00 AM59 °FSunny.8 mph55%30.21 "Hg10 mi
7:30 AM57 °FClear.10 mph59%30.18 "Hg10 mi
7:00 AM57 °FClear.10 mph59%30.18 "Hg10 mi
6:30 AM57 °FPassing clouds.5 mph59%30.18 "HgN/A
6:00 AM55 °FClear.3 mph63%30.15 "Hg10 mi
5:30 AM57 °FClear.3 mph63%30.15 "Hg10 mi
5:00 AM57 °FClear.5 mph59%30.15 "Hg10 mi
4:30 AM55 °FClear.1 mph67%30.15 "Hg10 mi
4:00 AM57 °FPassing clouds.3 mph59%30.15 "HgN/A
3:30 AM57 °FClear.6 mph59%30.15 "Hg10 mi
3:00 AM59 °FClear.6 mph59%30.15 "Hg10 mi
2:30 AM59 °FClear.8 mph63%30.15 "Hg10 mi
2:00 AM57 °FClear.9 mph67%30.12 "Hg10 mi
1:30 AM57 °FClear.12 mph67%30.12 "Hg10 mi
1:00 AM57 °FClear.8 mph67%30.12 "Hg10 mi
12:30 AM57 °FClear.7 mph72%30.12 "Hg10 mi
12:00 AM57 °FClear.7 mph72%30.12 "Hg10 mi
11:30 PM
Mon, Apr 20
57 °FClear.7 mph72%30.12 "Hg10 mi
11:00 PM57 °FClear.7 mph72%30.12 "Hg10 mi
10:30 PM57 °FClear.9 mph72%30.09 "Hg10 mi
10:00 PM59 °FClear.8 mph68%30.09 "Hg10 mi
9:30 PM59 °FPassing clouds.5 mph68%30.09 "HgN/A
9:00 PM57 °FSunny.1 mph77%30.09 "Hg10 mi
8:30 PM59 °FSunny.3 mph72%30.09 "Hg10 mi
8:00 PM61 °FSunny.3 mph68%30.09 "Hg10 mi
7:30 PM61 °FSunny.6 mph68%30.09 "Hg10 mi
7:00 PM61 °FPassing clouds.7 mph63%30.09 "HgN/A
6:30 PM61 °FPassing clouds.7 mph63%30.09 "HgN/A
6:00 PM61 °FPassing clouds.9 mph63%30.09 "HgN/A
5:30 PM61 °FPassing clouds.12 mph63%30.09 "HgN/A
5:00 PM61 °FPassing clouds.13 mph68%30.09 "HgN/A
4:30 PM63 °FPassing clouds.13 mph64%30.09 "HgN/A
4:00 PM63 °FPassing clouds.12 mph64%30.09 "HgN/A
3:30 PM63 °FScattered clouds.14 mph64%30.09 "HgN/A
Weather by CustomWeather, © 2015

See weather overviewHow to use our weather pages